Tracking 31027 objects as of 19-Jul-2025
HD Live streaming from Space Station
objects crossing your sky now

HONGYAN 1

Track HONGYAN 1 now!
10-day predictions


NORAD ID: 43914
Int'l Code: 2018-112F
Perigee: 1,097.4 km
Apogee: 1,107.1 km
Inclination: 50.0 °
Period: 107.2 minutes
Semi major axis: 7473 km
RCS: Unknown
Launch date: December 29, 2018
Source: People's Republic of China (PRC)
Launch site: Jiuquan Satellite Launch Center, China (JSC)
Your satellite tracking list
SL-8 R/B
Track 1 satellite(s)




NASA's NSSDC Master Catalog

Two Line Element Set (TLE):
1 43914U 18112F   25199.77034883 -.00000121  00000-0  13146-4 0  9994
2 43914  50.0089  23.3460 0006490 323.5102  36.5334 13.43800088321812
Source of the keplerian elements: AFSPC